{"data":{"norad_id":49313,"epoch":"2026-05-25T02:38:57.550848Z","epoch_age_seconds":79606,"freshness":"FRESH","line1":"1 49313U 21090AL  26145.11038832 -.00000013  00000+0 -62713-4 0  9994","line2":"2 49313  87.9166 279.0561 0002234 104.7175 255.4206 13.20771896226777","mean_motion":13.20771896,"eccentricity":0.0002234,"inclination_deg":87.9166,"raan_deg":279.0561,"arg_perigee_deg":104.7175,"mean_anomaly_deg":255.4206,"bstar":-6.2713e-5,"rev_number":22677,"period_min":109.0271533155,"perigee_km":1180.0841718516,"apogee_km":1183.4619396645,"semimajor_km":7559.910055758,"source":"CELESTRAK","updated_at":"2026-05-25T13:38:22.527141Z"}}